Helicity
70 69 78 73 59 47 25 40 30 36 36 22 25 26 17 12 5 9 19 30 23 25 24 48 53 63 35 32 76 35 22 64 64 72 87 75 100 28 23 18 27 17 12 36 17 47 86
85 76 78 63 48 42 25 38 35 35 36 30 12 15 9 2 -2 8 23 25 31 15 36 46 51 52 19 79 50 4 -8 74 71 63 58 68 93 59 55 40 40 11 33 70 92 79 83
89 78 72 51 39 37 31 44 42 41 19 17 8 1 -4 -8 -5 17 25 17 11 16 52 36 55 32 30 100 43 75 32 100 127 82 80 117 73 35 28 30 -1 40 65 84 119 127 120
81 84 61 46 35 35 33 40 48 34 16 10 -3 -10 -8 -7 7 32 21 11 19 61 62 65 44 20 61 57 45 88 55 64 54 73 55 36 27 48 42 70 122 54 52 28 -45 8 64
75 82 60 44 33 35 32 35 49 28 8 4 3 6 -1 2 24 28 28 49 65 61 55 32 9 16 83 80 91 76 22 44 44 17 23 33 24 92 54 62 76 67 8 10 -15 18 26
79 72 55 41 30 27 31 26 41 14 14 14 8 17 -8 -22 -8 6 40 48 40 47 59 27 35 48 51 59 68 64 18 48 55 28 59 61 52 59 95 62 6 15 -3 26 -13 5 54
78 63 49 29 28 15 25 27 18 22 25 23 -26 17 -25 -32 -34 25 23 44 64 69 83 71 34 32 57 62 41 71 40 66 53 64 79 110 64 68 76 54 41 44 73 33 27 47 75
83 61 47 28 29 7 19 16 18 36 28 21 -19 -20 -25 -41 -35 -6 36 110 84 65 89 59 60 62 82 67 69 96 72 40 71 85 88 106 61 64 36 44 40 46 27 43 109 147 125
83 69 56 26 20 7 12 9 38 41 29 1 -12 -22 -15 -27 -14 40 87 137 89 66 78 73 39 38 59 18 52 87 47 61 80 86 68 46 98 63 48 61 46 73 68 87 82 103 140
92 80 57 28 15 11 -0 26 50 42 44 -21 -15 -21 -20 -17 81 98 131 94 79 34 45 72 40 39 27 34 58 78 65 67 88 71 90 70 101 67 70 37 25 87 102 110 118 128 94
103 76 57 33 25 9 7 41 66 52 48 15 -3 -12 4 92 98 115 102 86 36 44 47 62 51 57 43 41 60 108 87 77 71 86 82 62 58 65 60 42 54 58 89 92 98 109 167
99 83 63 57 37 28 37 58 65 71 43 35 70 60 49 100 108 120 102 79 35 60 65 54 49 40 47 63 85 107 114 111 82 148 166 77 44 59 52 63 66 81 93 121 108 107 126
100 78 67 71 41 58 56 85 72 85 56 98 79 34 60 60 98 90 91 47 52 61 46 37 33 27 38 56 89 86 131 161 102 113 118 106 90 90 86 66 71 76 91 94 80 65 81
102 84 74 78 60 63 70 103 87 87 87 101 59 33 117 79 79 74 55 39 78 64 44 44 18 50 35 68 115 156 139 118 136 73 90 64 85 81 85 42 20 51 31 37 22 30 56
104 89 78 83 70 78 76 110 102 89 89 107 79 121 120 96 52 51 17 58 90 62 28 36 65 62 78 92 87 105 108 94 92 95 58 52 58 73 68 53 16 23 51 33 59 50 64
118 90 86 82 80 77 88 117 108 94 91 86 140 134 130 117 52 33 34 114 90 75 21 62 41 36 38 66 95 89 87 95 87 85 56 28 60 57 69 45 55 27 7 8 26 42 60
127 92 88 79 83 73 101 116 112 96 97 104 156 140 144 125 67 34 58 126 95 92 20 43 36 30 27 46 79 78 55 73 83 93 81 55 44 60 55 50 23 25 6 11 16 30 52
130 103 78 90 67 79 103 118 110 108 112 150 142 118 170 126 83 39 51 116 111 93 91 63 32 48 36 57 76 56 39 47 83 69 60 62 43 88 53 66 44 20 19 27 43 31 57
125 98 92 80 71 81 107 119 121 109 119 166 156 149 179 119 45 56 94 95 79 64 57 67 59 47 79 91 61 67 72 64 74 57 56 74 72 97 90 80 64 45 48 61 67 56 54
117 98 88 73 74 85 110 133 127 114 145 170 163 153 201 147 81 40 80 74 69 79 46 77 82 94 106 100 97 47 72 53 66 68 73 83 66 36 11 23 54 59 78 87 101 91 102
115 108 83 84 79 98 127 138 127 119 140 180 183 151 143 119 114 100 102 87 69 56 59 85 99 62 54 65 74 58 53 61 84 86 84 82 50 81 88 90 78 71 77 90 95 115 134
121 107 85 78 92 117 133 132 127 126 139 179 160 150 188 106 139 126 109 89 51 60 59 63 53 70 57 24 17 19 50 57 57 98 103 116 62 104 88 107 100 70 71 63 72 100 93
117 85 77 91 107 131 123 133 129 106 154 163 182 179 152 174 170 152 123 86 32 77 105 70 53 77 87 56 56 71 76 76 53 56 83 93 94 110 78 109 107 70 93 143 135 125 155
101 77 97 99 133 125 135 142 142 90 122 116 135 135 169 176 157 143 146 118 74 78 80 78 94 101 59 72 119 185 245 195 173 156 90 97 137 150 106 145 144 98 137 110 139 131 148
90 95 92 120 129 128 139 162 167 84 67 61 126 105 145 219 164 144 167 160 212 207 153 115 86 70 102 151 113 108 119 108 121 144 143 110 133 162 164 153 151 134 150 197 193 115 147
91 101 120 140 112 136 149 179 195 110 112 71 122 105 110 184 203 169 172 131 156 186 184 136 158 255 162 138 125 96 72 61 73 82 128 175 186 177 175 176 130 102 143 178 220 155 127
114 116 140 116 105 142 158 204 222 204 118 112 122 86 109 150 157 140 146 118 140 183 168 164 160 145 152 144 149 126 111 96 97 88 74 134 162 145 187 168 151 95 186 247 261 96 132
126 131 136 114 102 138 170 225 268 223 140 72 97 103 75 110 166 150 135 134 131 137 144 110 181 136 156 157 137 108 125 97 145 133 102 110 125 140 213 218 166 173 323 204 108 163 109
138 141 128 118 128 126 174 211 256 242 168 103 131 141 119 109 119 143 144 137 110 73 123 136 94 83 98 159 142 137 155 149 167 158 178 171 152 128 138 118 118 67 108 108 164 185 178
Wind_Speed
35 35 36 33 29 26 28 31 34 39 55 72 60 50 43 34 34 24 46 44 43 42 42 42 39 38 32 34 39 32 20 11 11 28 50 46 39 34 38 33 41 41 26 19 8 6 11
38 37 36 34 30 27 27 31 32 37 64 59 56 38 35 30 26 25 40 38 38 36 39 35 35 35 30 38 31 22 18 20 37 36 41 45 43 45 43 47 36 18 21 13 18 10 12
39 40 37 33 30 27 26 30 31 57 65 54 39 29 30 32 25 32 31 23 30 31 35 28 34 36 33 46 28 38 33 39 45 43 35 43 42 37 31 25 21 9 19 24 24 27 23
42 39 35 31 31 28 27 27 34 62 57 49 20 21 13 22 27 35 24 22 27 36 32 35 34 32 44 38 41 42 36 38 41 45 37 32 32 28 26 7 19 26 24 17 20 15 33
43 39 34 29 30 29 27 26 45 57 58 42 6 15 21 40 39 34 27 33 34 33 30 21 24 29 43 41 43 38 28 31 35 33 33 28 22 17 12 6 24 32 20 16 18 34 24
45 39 35 25 31 28 26 24 50 53 54 47 27 36 31 29 10 12 26 24 26 26 27 24 36 35 41 38 47 35 31 35 33 30 27 26 25 24 25 24 22 21 17 25 21 26 27
47 43 35 26 28 25 23 23 52 51 50 47 14 33 21 32 29 26 10 18 24 28 38 45 39 38 35 34 39 49 40 37 38 30 32 34 31 26 26 29 28 29 34 36 34 30 26
49 43 37 32 27 22 19 28 51 47 45 40 17 11 11 19 21 7 18 31 24 30 44 55 47 44 41 40 38 43 39 45 41 34 32 31 23 30 19 23 27 27 18 18 16 23 19
53 46 46 32 28 22 16 35 49 44 40 24 10 10 6 15 8 20 37 36 33 31 38 41 47 43 39 36 36 36 36 40 43 45 43 39 34 27 20 25 31 30 24 23 18 23 18
61 58 49 33 29 27 23 38 47 40 40 8 4 7 13 13 19 35 41 34 31 34 40 43 44 41 38 35 37 34 32 39 40 44 32 29 34 31 29 31 35 33 32 28 27 21 16
73 75 50 38 36 27 35 41 47 40 37 14 2 6 8 40 35 44 39 34 35 32 46 47 43 37 34 36 39 39 28 33 38 44 36 37 28 31 34 31 28 23 29 28 27 23 23
82 73 63 53 41 39 50 42 43 45 30 14 29 50 52 50 43 44 35 34 34 38 46 47 42 44 40 36 39 38 32 22 27 19 18 30 29 29 33 31 29 26 19 24 27 25 23
83 80 72 58 44 57 54 46 42 48 27 41 54 58 57 46 45 38 34 34 44 43 44 49 51 48 44 39 39 41 35 32 31 32 32 29 29 32 29 23 30 24 18 18 13 8 8
88 83 75 64 55 56 58 48 47 47 37 53 55 57 56 49 41 38 33 43 46 43 47 42 44 39 40 32 30 32 29 30 25 28 27 32 34 31 33 29 28 26 21 17 22 21 16
85 82 76 70 61 59 58 50 52 45 47 52 46 51 49 45 41 35 39 49 44 45 42 39 24 23 29 26 19 25 29 33 31 30 35 35 36 32 29 30 28 27 26 24 25 26 21
82 80 77 69 62 63 55 53 54 47 53 56 50 49 48 43 37 35 45 45 38 37 36 15 23 25 30 25 26 32 38 38 37 31 35 34 26 32 32 28 22 21 27 27 30 25 23
80 77 72 64 63 60 54 55 54 50 56 57 49 52 49 42 39 44 56 45 37 32 32 29 17 30 36 34 33 38 41 37 37 39 33 34 32 40 33 27 25 25 27 30 31 30 27
78 71 68 61 62 56 54 55 54 52 56 54 52 60 47 43 56 52 57 44 37 34 28 27 26 32 41 32 37 40 43 39 39 40 41 38 31 29 31 33 30 26 26 28 31 28 28
74 68 62 60 59 52 52 53 55 59 61 54 54 49 44 48 67 64 54 47 41 37 33 34 33 34 31 30 37 38 39 37 36 37 41 37 31 15 30 34 30 24 26 28 29 29 23
70 60 54 57 55 49 48 51 58 66 64 52 53 58 54 54 53 61 61 52 43 36 36 33 32 28 26 31 31 34 38 38 35 30 31 29 23 14 14 21 20 19 22 26 25 26 28
63 55 50 54 50 45 45 51 59 68 65 53 53 61 59 71 67 59 58 50 42 39 37 34 33 39 36 37 36 35 36 33 32 32 29 27 23 23 24 27 24 21 20 22 20 27 29
58 51 44 49 43 40 45 49 57 66 61 55 56 55 53 49 58 58 59 55 48 43 35 37 32 38 39 38 40 39 31 33 34 31 30 31 24 23 23 32 34 25 24 22 22 28 25
52 45 39 45 36 36 40 44 54 65 61 55 47 42 50 53 61 58 63 53 52 36 34 33 17 29 31 34 26 21 26 22 22 22 23 26 22 24 29 35 36 32 20 17 26 30 30
46 40 36 39 29 31 33 38 48 65 61 47 42 42 51 60 59 58 49 47 48 35 27 25 19 23 15 12 15 19 21 22 24 28 26 24 25 29 34 34 37 36 37 28 29 34 33
41 36 28 29 25 26 26 33 44 62 59 45 40 42 47 53 52 51 45 39 25 25 28 24 30 22 22 20 26 30 36 36 36 36 35 29 25 34 37 35 47 37 33 30 32 39 31
38 31 34 26 23 23 21 27 37 51 52 40 37 35 35 42 50 37 35 32 30 29 30 26 22 8 22 27 31 36 39 34 35 33 34 33 31 33 36 45 50 40 34 31 37 50 30
37 31 31 25 20 19 17 21 30 38 43 32 32 32 32 38 39 38 41 35 28 27 27 22 19 25 29 31 35 38 41 34 37 35 33 33 36 33 36 45 49 38 31 30 43 49 25
33 33 29 25 19 17 15 18 25 30 34 35 29 27 29 32 34 33 31 31 27 26 27 22 26 32 30 33 36 36 38 31 37 37 37 35 35 40 41 48 61 30 28 37 41 38 32
36 33 29 25 21 16 14 16 20 26 30 31 31 26 21 25 29 25 23 26 32 27 24 24 30 27 24 32 34 34 39 36 40 49 36 45 35 43 33 43 45 27 38 34 39 46 41
Wind_Direction
284 289 298 305 311 317 321 326 328 329 319 301 316 321 321 326 323 326 289 286 281 280 276 272 273 264 269 254 242 262 302 338 263 241 210 217 227 237 236 241 242 229 245 271 346 18 58
281 285 294 301 308 315 320 326 329 329 311 316 316 327 326 328 328 326 289 285 280 282 270 275 270 263 263 241 256 292 299 260 225 231 224 222 228 229 247 242 246 259 272 340 295 332 341
276 282 290 297 306 313 319 326 329 314 304 317 330 335 330 320 327 301 293 310 287 279 263 281 259 247 260 228 269 257 246 224 214 215 224 225 234 249 252 252 255 50 301 318 293 277 284
273 277 285 293 301 311 319 327 328 303 310 318 348 349 6 333 309 279 299 297 274 248 258 253 251 260 236 254 259 245 237 233 219 215 231 238 242 244 259 282 257 266 285 326 317 336 260
268 271 279 287 297 307 318 327 318 303 298 321 125 166 147 181 251 253 262 242 238 247 257 279 274 271 238 253 239 240 261 249 231 234 237 243 252 259 302 327 268 268 287 318 332 245 282
262 265 272 277 292 303 317 327 305 300 291 269 182 182 144 119 1 291 239 244 248 260 258 266 244 247 241 234 221 247 259 236 239 251 248 252 257 259 267 279 292 299 296 296 309 296 285
256 259 265 271 287 299 315 326 291 292 281 271 50 277 93 111 97 226 252 256 255 255 236 214 223 224 220 233 232 222 230 235 229 239 242 242 256 271 272 266 258 265 274 278 266 274 287
249 252 259 268 280 292 311 313 282 284 277 273 339 24 66 89 87 253 256 233 252 241 211 204 210 214 223 216 219 219 234 221 228 234 244 241 259 240 257 261 262 265 286 281 297 308 325
243 246 253 260 272 284 301 292 273 274 271 292 337 62 75 87 76 233 223 217 223 225 210 211 203 208 209 214 209 211 223 216 214 210 209 212 224 243 262 258 243 247 264 286 306 321 341
239 243 246 251 263 274 286 276 265 269 257 322 27 89 97 95 234 222 210 217 224 211 196 198 200 202 203 204 205 212 219 208 207 206 211 232 234 239 253 256 249 260 273 288 299 326 343
233 235 240 246 255 264 268 263 255 255 251 265 240 130 156 207 214 203 209 224 215 213 187 196 200 212 212 207 206 205 228 219 212 207 224 224 244 248 252 277 293 310 292 302 315 329 333
227 231 234 241 248 254 249 254 252 243 250 247 229 207 200 203 207 204 224 222 214 200 189 192 200 201 205 211 210 212 222 242 229 248 265 245 260 272 266 279 297 318 349 333 335 333 327
225 226 228 234 241 239 240 244 244 233 241 223 207 200 198 207 203 218 224 216 199 197 196 189 190 193 197 205 209 215 223 229 239 236 242 261 273 274 289 317 308 326 347 360 16 43 91
220 221 224 228 234 234 234 236 235 230 227 211 206 201 205 209 219 224 225 205 197 200 195 202 199 208 208 221 229 233 244 247 269 269 259 256 257 279 278 284 296 313 350 50 129 124 79
216 218 221 223 228 229 229 232 229 227 216 208 206 210 212 216 221 229 215 202 203 202 209 209 231 239 237 253 269 260 259 255 265 265 249 249 247 258 261 269 279 297 311 20 30 35 80
212 215 218 221 224 224 227 228 225 222 211 206 209 213 215 221 227 225 212 209 215 220 220 250 252 260 255 268 262 253 240 247 247 266 254 245 263 245 240 251 289 318 49 4 351 61 61
207 212 216 220 220 223 225 225 222 217 209 207 212 213 220 226 228 220 208 213 222 232 241 252 287 263 254 250 249 238 236 248 249 242 251 242 249 228 243 270 284 315 336 358 23 38 43
204 209 214 217 218 222 224 224 220 212 206 210 213 213 224 226 215 219 215 223 234 235 252 266 280 271 240 249 242 239 236 241 245 239 229 234 248 250 255 257 286 333 349 8 16 27 25
201 206 211 215 217 222 223 222 217 209 206 210 213 219 228 225 214 216 222 228 234 240 256 256 261 253 250 251 242 243 240 244 244 239 235 243 257 290 271 280 304 346 347 1 12 18 29
199 203 209 213 217 222 223 221 214 207 209 213 216 215 220 223 226 222 221 226 235 248 259 266 260 262 261 250 256 248 243 245 251 260 260 267 285 321 96 350 352 4 357 355 359 4 359
196 201 207 211 217 221 222 220 213 207 209 215 221 220 219 217 220 223 222 230 240 250 255 260 264 250 255 254 257 259 253 260 267 269 276 285 297 308 326 330 343 354 353 349 349 345 347
194 198 204 210 215 220 221 219 212 207 210 217 221 221 222 228 221 224 225 229 240 249 265 257 272 259 255 263 261 260 268 269 272 278 281 287 304 313 323 321 325 334 335 333 330 333 331
190 195 200 207 213 219 221 219 212 207 211 217 230 234 225 228 221 225 226 235 238 258 270 275 321 280 274 273 286 299 287 293 298 305 300 301 311 314 313 320 323 323 316 323 332 336 337
187 191 195 204 210 218 222 218 211 206 211 223 233 233 226 225 223 228 235 242 244 260 277 296 319 306 316 26 346 324 327 326 320 311 309 311 312 314 313 322 312 324 327 320 320 326 328
183 187 188 197 207 216 222 217 210 206 212 227 237 237 232 225 229 234 241 247 261 268 279 296 293 318 94 312 302 296 292 297 302 307 308 311 312 310 308 308 315 321 319 317 318 320 323
180 175 190 191 205 213 219 211 208 207 212 231 239 242 243 223 233 242 243 247 253 262 277 295 319 12 316 308 302 293 293 303 308 315 316 315 314 306 310 307 309 322 322 325 325 314 321
178 178 186 190 201 210 216 209 206 207 215 233 240 246 247 238 247 246 248 250 266 270 278 288 303 305 306 302 300 301 297 308 305 309 314 314 311 299 301 303 310 312 319 327 313 321 334
173 181 185 194 200 210 214 211 213 212 215 233 243 260 253 251 254 262 263 257 266 273 276 288 296 302 301 299 304 307 307 308 310 311 312 309 308 306 307 305 305 314 314 308 319 326 323
181 184 189 197 203 211 219 219 223 226 229 240 245 262 274 263 262 275 282 284 279 282 286 288 297 307 306 307 305 312 308 312 309 305 312 306 306 310 302 311 318 309 312 308 316 317 315